Location: Observatoire
(46.1952°N, 5.3391°E)
Time: 20:21:55
(UTC+01:00)

Altair - Pass Details

Date: 24 February 2026
Orbit: 1502 x 1682 km, 47.2° (Epoch: 10 March)

Event Time Altitude Azimuth Distance (km) Brightness Sun altitude
Rises 11:48:02 0° 286° (WNW) 4,736 9.8 32.6°
Reaches altitude 10° 11:53:00 10° 264° (W) 3,786 9.5 32.9°
Maximum altitude 11:57:31 14° 236° (SW) 3,474 9.7 33.1°
Drops below altitude 10° 12:02:06 10° 207° (SSW) 3,846 10.4 33.3°
Sets 12:07:17 0° 185° (S) 4,862 11.1 33.6°
